This is the latest recevied weather packets stored in our database for station/object DL2AKT-20. If no packets are shown the sender has not sent any weather packets the latest 10 day(s).
| Time | Temp. | Humidity | Pressure | Rain* | Wind** | Luminosity | Snow |
|---|---|---|---|---|---|---|---|
| 1777566868 | 18.33° C | 26% | 1031.2 hPa | - | - | - | - |
| 1777565968 | 18.89° C | 25% | 1031.3 hPa | - | - | - | - |
| 1777565067 | 19.44° C | 25% | 1031.4 hPa | - | - | - | - |
| 1777564167 | 19.44° C | 25% | 1031.4 hPa | - | - | - | - |
| 1777563267 | 19.44° C | 25% | 1031.2 hPa | - | - | - | - |
| 1777562367 | 19.44° C | 25% | 1031.2 hPa | - | - | - | - |
| 1777561467 | 18.89° C | 24% | 1031.4 hPa | - | - | - | - |
| 1777560567 | 20° C | 23% | 1031.3 hPa | - | - | - | - |
| 1777559667 | 18.33° C | 24% | 1031.5 hPa | - | - | - | - |
| 1777558767 | 18.33° C | 23% | 1031.7 hPa | - | - | - | - |
| 1777557866 | 17.78° C | 23% | 1031.9 hPa | - | - | - | - |
| 1777556966 | 17.78° C | 23% | 1031.9 hPa | - | - | - | - |
| 1777556066 | 17.78° C | 23% | 1032.1 hPa | - | - | - | - |
| 1777555166 | 18.33° C | 22% | 1032 hPa | - | - | - | - |
| 1777554265 | 17.78° C | 22% | 1032.2 hPa | - | - | - | - |
| 1777553370 | 18.33° C | 23% | 1032.3 hPa | - | - | - | - |
| 1777552470 | 17.78° C | 21% | 1032.3 hPa | - | - | - | - |
| 1777551570 | 17.78° C | 21% | 1032.6 hPa | - | - | - | - |
| 1777550670 | 17.78° C | 20% | 1032.7 hPa | - | - | - | - |
| 1777549769 | 17.78° C | 19% | 1032.9 hPa | - | - | - | - |
| 1777548869 | 17.22° C | 21% | 1032.9 hPa | - | - | - | - |
| 1777547969 | 17.22° C | 17% | 1032.8 hPa | - | - | - | - |
| 1777547069 | 17.22° C | 18% | 1033 hPa | - | - | - | - |
| 1777546170 | 17.22° C | 19% | 1033 hPa | - | - | - | - |
| 1777545269 | 16.11° C | 21% | 1033 hPa | - | - | - | - |
* Rain since midnight (hover to see other rain measurements)
** Current wind speed in m/s (hover to see current wind gust speed)